Regional Weather Roundup
Issued by NWS State College, PA

Home | Current Version | Previous Version | Text Only | Print | Product List | Glossary On
Versions: 1 2 3 4 5 6 7 8 9 10 11 12 13 14 15 16 17 18 19 20 21 22 23 24 25 26 27 28 29 30 31 32 33 34 35 36 37 38 39 40 41 42 43 44 45 46 47 48 49 50
000
ASUS41 KCTP 260310
RWRCTP

REGIONAL WEATHER ROUNDUP
NATIONAL WEATHER SERVICE STATE COLLEGE PA
1100 PM EDT SUN SEP 25 2016

Note: "fair" indicates few or no clouds below 12,000 feet with no
significant weather and/or obstructions to visibility.

* = STATION THAT DOES NOT REPORT PRECIPITATION /E.G. RAIN...SNOW...ETC/
    THUNDER OR FOG.

PAZ002>004-007>009-013>016-020>023-029>032-260400-
WESTERN PENNSYLVANIA

CITY           SKY/WX    TMP DP  RH WIND       PRES   REMARKS
ERIE           CLEAR     58  48  69 SE3       30.09F
MEADVILLE      CLOUDY    56  45  66 E3        30.11F
FRANKLIN*        N/A     52  45  76 E3        30.13F
NEW CASTLE     FAIR      59  49  69 SE5       30.10F
BEAVER COUNTY  NOT AVBL
BUTLER*        CLEAR     59  45  58 E8        30.13F
PITTSBURGH INT MOCLDY    63  47  55 CALM      30.08F
PITTSBURGH     PTCLDY    62  45  53 E6        30.09F
INDIANA*       CLEAR     57  48  72 E5        30.16S
LATROBE        PTCLDY    55  54  94 CALM      30.12F
WASHINGTON CO* CLEAR     52  46  82 CALM      30.10F
$$

PAZ004>006-010>012-017>019-024>028-033>037-041-042-045-046-049>053-260400-
CENTRAL PENNSYLVANIA

CITY           SKY/WX    TMP DP  RH WIND       PRES   REMARKS
BRADFORD       CLOUDY    45  44  97 CALM      30.16F
DUBOIS         CLOUDY    52  42  69 E5        30.15S
CLEARFIELD     CLOUDY    48  46  93 N7        30.17S
JOHNSTOWN      CLEAR     56  45  66 SE3       30.15F
ALTOONA        CLEAR     59  44  57 CALM      30.17F
STATE COLLEGE  CLOUDY    57  42  56 CALM      30.16F
WILLIAMSPORT   PTCLDY    52  47  83 N3        30.17S
SELINSGROVE    PTCLDY    50  46  86 CALM      30.18S
FT INDIANTOWN  CLOUDY    51  48  89 NE2       30.18R
CAPITAL CITY   CLOUDY    55  47  74 CALM      30.17S
HARRISBURG     CLOUDY    57  50  77 E6        30.17R
YORK           CLEAR     59  49  69 S6        30.18S
$$

PAZ038>040-043-044-047-048-054-055-060>062-067>071-260400-
EASTERN PENNSYLVANIA

CITY           SKY/WX    TMP DP  RH WIND       PRES   REMARKS
SCRANTON       CLOUDY    49  40  71 E8        30.19S
MOUNT POCONO   CLEAR     43  36  76 CALM      30.20F
ALLENTOWN      CLEAR     51  41  68 N3        30.19S
QUAKERTOWN*    CLEAR     46  43  87 CALM      30.20S
READING        CLOUDY    54  47  77 CALM      30.18S
LANCASTER      CLEAR     55  48  77 SE3       30.18S
COATESVILLE    CLEAR     52  46  82 CALM      30.20S
POTTSTOWN      PTCLDY    49  45  86 CALM      30.20S
BLUE BELL      CLOUDY    46  45  93 CALM      30.18S
DOYLESTOWN     CLOUDY    54  45  71 CALM      30.18S
WILLOW GROVE   NOT AVBL
NORTH PHILA    PTCLDY    56  47  71 NE3       30.20R
PHILADELPHIA   CLEAR     59  49  69 E3        30.18S
$$




USA.gov is the U.S. government's official web portal to all federal, state and local government web resources and services.